Location: *
(58.4167°N, 22.5000°E)
Time: 06:11:51
(UTC+00:00)

CZ-2C R/B - Pass Details

Date: 22 September 2019
Orbit: 785 x 870 km, 98.3° (Epoch: 17 October)

Event Time Altitude Azimuth Distance (km) Brightness Sun altitude
Rises 20:52:38 0° 15° (NNE) 3,431 6.5 -28.8°
Reaches altitude 10° 20:55:05 10° 9° (N) 2,502 5.8 -28.9°
Maximum altitude 21:00:19 44° 300° (WNW) 1,194 3.7 -29.2°
Enters shadow 21:02:35 29° 251° (WSW) 1,530 4.0 -29.3°
